Flag for Colombia Weather past 2 weeks in Bogota, Colombia

Now
52 °F

Passing clouds.


Feels Like: 52 °F
Forecast: 50 / 65 °F
Wind: 2 mph from North

Location: Bogota / Eldorado

Current Time: May 23, 2015 at 11:01:25 PM

Latest Report: May 23, 2015 at 10:00 PM


Visibility: N/A

Pressure: 30.39 "Hg

Humidity: 82%

Dew point: 46 °F

Location of BogotaLocation

Historic Weather in Bogota — Graph

°F

Bogota temperature yesterday

Maximum temperature yesterday: 68 °F (at 3:00 PM)
Minimum temperature yesterday: 54 °F (at 1:00 AM)
Average temperature yesterday: 59 °F

Past Weeks' High & Low Weather Summary

 TemperatureHumidityPressure
High68 °F (May 11, 1:00 PM)94% (May 10, 3:00 AM)30.44 "Hg (May 10, 3:00 AM)
Low48 °F (May 12, 5:00 AM)35% (May 11, 4:00 PM)30.23 "Hg (May 13, 5:00 PM)
Average59 °F70%30.34 "Hg
* Reported May 8 9:00 PM — May 23 9:00 PM, Bogota, Weather by CustomWeather, © 2015

Note: Actual official high and low records may vary slightly from our data, if they occured in-between our weather recording intervals... More about our weather records

Advertising

Bogota weather history for previous 24 hours

 ConditionsComfort  
Time TempWeatherWind HumidityBarometerVisibility
9:00 PM
Sat, May 23
55 °FPassing clouds.5 mph77%30.39 "HgN/A
8:00 PM57 °FPassing clouds.8 mph67%30.37 "HgN/A
7:00 PM61 °FPassing clouds.9 mph55%30.36 "HgN/A
6:00 PM63 °FScattered clouds.12 mph56%30.33 "HgN/A
5:00 PM63 °FScattered showers. Scattered clouds.17 mph59%30.31 "HgN/A
4:00 PM63 °FScattered showers. Scattered clouds.12 mph59%30.32 "HgN/A
3:00 PM66 °FScattered showers. Broken clouds.14 mph52%30.33 "HgN/A
2:00 PM66 °FBroken clouds.12 mph52%30.35 "HgN/A
1:00 PM66 °FPartly sunny.9 mph52%30.38 "HgN/A
12:00 PM64 °FPartly sunny.10 mph52%30.41 "HgN/A
11:00 AM63 °FPartly sunny.10 mph56%30.43 "HgN/A
10:00 AM63 °FScattered clouds.13 mph52%30.44 "HgN/A
9:00 AM59 °FScattered clouds.8 mph63%30.43 "HgN/A
8:00 AM55 °FBroken clouds.9 mph82%30.42 "HgN/A
7:00 AM55 °FBroken clouds.8 mph82%30.41 "HgN/A
6:00 AM54 °FScattered clouds.7 mph88%30.40 "HgN/A
5:00 AM52 °FPassing clouds.No wind94%30.38 "HgN/A
4:00 AM54 °FPassing clouds.2 mph88%30.38 "HgN/A
3:00 AM52 °FPassing clouds.5 mph88%30.38 "HgN/A
2:00 AM52 °FPassing clouds.2 mph88%30.39 "HgN/A
1:00 AM52 °FPassing clouds.3 mph88%30.40 "HgN/A
12:00 AM55 °FPassing clouds.3 mph77%30.44 "HgN/A
11:00 PM
Fri, May 22
54 °FPassing clouds.7 mph82%30.44 "HgN/A
Weather by CustomWeather, © 2015

See weather overviewHow to use our weather pages